Regional Weather Roundup
Issued by NWS Green Bay, WI

Home | Current Version | Previous Version | Text Only | Print | Product List | Glossary On
Versions: 1 2 3 4 5 6 7 8 9 10 11 12 13 14 15 16 17 18 19 20 21 22 23 24 25 26 27 28 29 30 31 32 33 34 35 36 37 38 39 40 41 42 43 44 45 46 47 48 49 50
828
ASUS43 KGRB 260200
RWRGRB

NORTH-CENTRAL AND NORTHEAST WISCONSIN REGIONAL WEATHER ROUNDUP
NATIONAL WEATHER SERVICE GREEN BAY WI
900 PM CDT THU MAY 25 2017

WIZ005-009-010>012-018-019-260300-
NORTH CENTRAL WISCONSIN

CITY           SKY/WX    TMP DP  RH WIND       PRES   REMARKS
IRONWOOD       CLEAR     60  47  61 E6        29.71R
MANITOWISH WTR NOT AVBL
ARBOR VITAE    NOT AVBL
EAGLE RIVER    NOT AVBL
LAND O LAKES   NOT AVBL
RHINELANDER    CLEAR     63  49  60 CALM      29.72R
PHILLIPS       NOT AVBL
ANTIGO         NOT AVBL
TOMAHAWK       NOT AVBL
MERRILL        NOT AVBL
$$

WIZ013-073-260300-
NORTHEAST WISCONSIN

CITY           SKY/WX    TMP DP  RH WIND       PRES   REMARKS
IRON MOUNTAIN  CLEAR     63  44  50 VRB3      29.73R
MARINETTE      CLEAR     54  51  90 CALM      29.75R
$$

WIZ017-030-035>037-045-260300-
CENTRAL WISCONSIN

CITY           SKY/WX    TMP DP  RH WIND       PRES   REMARKS
MEDFORD        NOT AVBL
WAUSAU         CLOUDY    63  52  67 E3        29.70R
MOSINEE        MOCLDY    63  52  67 CALM      29.72R
MARSHFIELD     MOCLDY    64  50  60 S3        29.69R
WISC RAPIDS    CLEAR     58  53  84 CALM      29.71R
STEVENS POINT  NOT AVBL
WAUPACA        NOT AVBL
SHAWANO        NOT AVBL
CLINTONVILLE   NOT AVBL
WAUTOMA        PTCLDY    64  52  64 CALM      29.72R
$$

WIZ038-039-048-051-260300-
FOX VALLEY

CITY           SKY/WX    TMP DP  RH WIND       PRES   REMARKS
NWS GREEN BAY  CLEAR     60  55  83 E5        29.72R
APPLETON       PTCLDY    59  46  63 CALM      29.70R
OSHKOSH        CLEAR     60  54  80 CALM      29.71R
FOND DU LAC    CLEAR     61  52  72 SE3       29.71R
$$

WIZ022-050-052-260300-
EAST CENTRAL WISCONSIN

CITY           SKY/WX    TMP DP  RH WIND       PRES   REMARKS
EPHRAIM        NOT AVBL
WASHINGTON ISL NOT AVBL
STURGEON BAY   CLEAR     55  51  86 NE5       29.74R
MANITOWOC      NOT AVBL
SHEBOYGAN      CLEAR     52  52 100 N3        29.72R
$$

LMZ563-521-522-541>543-260300-
LAKESHORE

STATION/POSITION TIME  TEMP    WIND        PRES    VSBY  WAVE
                       AIR SEA DIR/SP/G                  HT/PER
                 (UTC) (F)     (DEG/KT/KT) (MB)    (MI)  (FT/S)
SHEBOYGAN LKSHOR 0100   56     360/ 10/ 11 1005.9R
KEWAUNEE LKSHORE 0130   54     360/  6/ 11 1006.2R
NORTHPORT PIER   0130   53      CALM  /  2 1006.4S
N MID LAKE BUOY  0050   46 41   20/  6/  6 1007.0R         0
CHAMBERS ISLAND  0140   53     330/  3/  5 1006.4R
MENOMINEE LKSHOR 0130           10/  7/  7 1005.9R
$$




USA.gov is the U.S. government's official web portal to all federal, state and local government web resources and services.